Terminal Aerodrome Forecast
Issued by NWS

Home | Current Version | Previous Version | Text Only | Print | Product List | Glossary On
Versions: 1 2 3 4 5 6 7 8 9 10 11 12 13 14 15 16 17
000
FTUS41 KGYX 272321
TAFRKD
TAF
KRKD 272321Z 2800/2824 25007KT P6SM SCT050 SCT120
     FM280200 32007KT P6SM SCT050 BKN120
     FM281400 32012G22KT P6SM BKN050
     FM282200 32010KT P6SM SCT050
      AMD LTD TO CLD VIS AND WIND=

USA.gov is the U.S. government's official web portal to all federal, state and local government web resources and services.